Weather reports worldwide

Advertisment
Bridgefoot, United Kingdom (99137): temperature & dewpoint: 16.07.2019 03:00:00 - 22.07.2019 03:00:00 (BST)Bridgefoot, United Kingdom (99137): precipitation: 16.07.2019 03:00:00 - 22.07.2019 03:00:00 (BST)
Date & Time tt [°C] td [°C] rr [mm]
22.07.2019 03:00:00 16,7 16,4 1,8
22.07.2019 02:00:00 16,7 16,4 2,2
22.07.2019 01:00:00 16,6 16,4 2,0
22.07.2019 00:00:00 16,6 16,1 5,8
21.07.2019 23:00:00 16,2 15,7 8,4
21.07.2019 22:00:00 15,6 14,9 4,4
21.07.2019 21:00:00 15,5 14,9 5,8
21.07.2019 20:00:00 15,5 14,6 3,8
21.07.2019 19:00:00 16,0 14,2 1,0
21.07.2019 18:00:00 16,9 14,0 0,0
21.07.2019 17:00:00 17,8 14,3 0,0
21.07.2019 16:00:00 17,8 15,1 0,0
21.07.2019 15:00:00 18,1 14,9 0,0
21.07.2019 14:00:00 17,9 14,1 0,0
21.07.2019 13:00:00 18,1 12,9 0,0
21.07.2019 12:00:00 17,2 12,7 0,0
21.07.2019 11:00:00 16,8 13,3 0,0
21.07.2019 10:00:00 16,9 13,6 0,0
21.07.2019 09:00:00 16,5 13,7 0,0
21.07.2019 08:00:00 16,2 13,9 0,0
21.07.2019 07:00:00 15,2 13,2 0,0
21.07.2019 06:00:00 15,1 13,0 0,0
21.07.2019 05:00:00 14,7 12,8 0,0
21.07.2019 04:00:00 14,8 12,6 0,0
21.07.2019 03:00:00 14,4 12,2 0,0
21.07.2019 02:00:00 14,2 11,4 0,0
21.07.2019 01:00:00 13,5 12,2 0,0
21.07.2019 00:00:00 13,2 12,2 0,0
20.07.2019 23:00:00 12,8 11,7 0,0
20.07.2019 22:00:00 13,8 12,0 0,0
20.07.2019 21:00:00 15,4 10,8 0,0
20.07.2019 20:00:00 16,4 11,0 0,0
20.07.2019 19:00:00 17,1 11,5 0,0
20.07.2019 18:00:00 18,5 10,4 0,0
20.07.2019 17:00:00 18,8 11,5 0,0
20.07.2019 16:00:00 18,4 13,0 0,0
20.07.2019 15:00:00 17,9 12,1 0,0
20.07.2019 14:00:00 18,1 14,7 0,0
20.07.2019 13:00:00 17,0 14,2 0,0
20.07.2019 12:00:00 16,9 15,3 0,0
20.07.2019 11:00:00 16,9 15,6 0,0
20.07.2019 10:00:00 16,1 15,3 0,2
20.07.2019 09:00:00 15,5 14,9 0,6
20.07.2019 08:00:00 15,8 14,9 0,8
20.07.2019 07:00:00 15,5 14,8 0,0
20.07.2019 06:00:00 15,3 14,4 0,2
20.07.2019 05:00:00 15,3 14,6 0,8
20.07.2019 04:00:00 15,8 14,8 0,0
20.07.2019 03:00:00 16,0 15,3 1,4
20.07.2019 02:00:00 16,1 15,4 0,2
20.07.2019 01:00:00 16,8 15,3 0,0
20.07.2019 00:00:00 16,7 15,4 0,0
19.07.2019 23:00:00 16,9 15,3 0,0
19.07.2019 22:00:00 16,9 15,3 0,0
19.07.2019 21:00:00 17,0 15,5 0,0
19.07.2019 20:00:00 17,3 15,7 0,0
19.07.2019 19:00:00 17,7 16,1 0,4
19.07.2019 18:00:00 17,2 16,1 1,0
19.07.2019 17:00:00 17,8 14,4 0,0
19.07.2019 16:00:00 18,2 13,9 0,0
19.07.2019 15:00:00 17,3 14,0 0,0
19.07.2019 14:00:00 17,7 12,8 0,0
19.07.2019 13:00:00 18,7 13,4 0,0
19.07.2019 12:00:00 17,2 12,5 0,0
19.07.2019 11:00:00 15,1 13,8 0,2
19.07.2019 10:00:00 15,9 12,9 0,0
19.07.2019 09:00:00 16,6 13,5 0,0
19.07.2019 08:00:00 15,5 13,6 0,0
19.07.2019 07:00:00 14,7 13,6 0,0
19.07.2019 06:00:00 14,0 12,8 0,0
19.07.2019 05:00:00 13,9 13,0 0,0
19.07.2019 04:00:00 13,9 12,8 0,0
19.07.2019 03:00:00 14,6 12,8 0,0
19.07.2019 02:00:00 14,7 12,9 0,0
19.07.2019 01:00:00 14,6 12,9 0,0
19.07.2019 00:00:00 13,7 12,7 0,0
18.07.2019 23:00:00 13,5 12,5 0,0
18.07.2019 22:00:00 13,9 12,8 0,0
18.07.2019 21:00:00 14,0 12,2 0,0
18.07.2019 20:00:00 14,8 13,6 0,2
18.07.2019 19:00:00 16,2 12,6 0,0
18.07.2019 18:00:00 16,0 13,0 0,0
18.07.2019 17:00:00 15,0 14,2 0,6
18.07.2019 16:00:00 16,8 12,2 0,0
18.07.2019 15:00:00 17,6 11,8 0,0
18.07.2019 14:00:00 17,6 13,2 0,0
18.07.2019 13:00:00 17,5 13,0 0,0
18.07.2019 12:00:00 16,2 12,7 0,0
18.07.2019 11:00:00 15,5 12,4 0,0
18.07.2019 10:00:00 15,4 12,9 0,0
18.07.2019 09:00:00 14,6 12,8 0,2
18.07.2019 08:00:00 14,2 12,4 0,0
18.07.2019 07:00:00 13,8 12,5 0,0
18.07.2019 06:00:00 13,1 12,7 0,0
18.07.2019 05:00:00 11,8 11,6 0,0
18.07.2019 04:00:00 11,0 10,6 0,0
18.07.2019 03:00:00 11,9 10,7 0,0
18.07.2019 02:00:00 13,2 11,8 0,0
18.07.2019 01:00:00 13,4 12,1 0,0
18.07.2019 00:00:00 14,4 13,9 0,2
17.07.2019 23:00:00 15,1 14,5 0,0
17.07.2019 22:00:00 15,3 14,5 0,0
17.07.2019 21:00:00 15,3 14,4 0,8
17.07.2019 20:00:00 14,9 14,5 1,0
17.07.2019 19:00:00 14,8 14,2 1,0
17.07.2019 18:00:00 14,5 13,8 1,0
17.07.2019 17:00:00 15,3 14,0 0,6
17.07.2019 16:00:00 15,7 14,3 0,6
17.07.2019 15:00:00 15,8 14,3 0,0
17.07.2019 14:00:00 16,7 14,2 0,0
17.07.2019 13:00:00 16,5 13,8 0,0
17.07.2019 12:00:00 17,1 14,1 0,0
17.07.2019 11:00:00 17,8 13,9 0,0
17.07.2019 10:00:00 16,9 13,9 0,0
17.07.2019 09:00:00 17,0 14,3 0,0
17.07.2019 08:00:00 16,5 14,0 0,0
17.07.2019 07:00:00 16,5 13,8 0,0
17.07.2019 06:00:00 16,0 13,4 0,0
17.07.2019 05:00:00 16,0 13,3 0,0
17.07.2019 04:00:00 15,8 12,9 0,0
17.07.2019 03:00:00 16,0 12,4 0,0
17.07.2019 02:00:00 16,0 11,6 0,0
17.07.2019 01:00:00 15,4 10,8 0,0
17.07.2019 00:00:00 15,3 11,1 0,0
16.07.2019 23:00:00 15,3 12,2 0,0
16.07.2019 22:00:00 15,5 12,4 0,0
16.07.2019 21:00:00 17,1 12,1 0,0
16.07.2019 20:00:00 18,5 12,8 0,0
16.07.2019 19:00:00 18,9 13,8 0,0
16.07.2019 18:00:00 19,0 14,6 0,0
16.07.2019 17:00:00 20,4 16,0 0,0
16.07.2019 16:00:00 20,2 15,0 0,0
16.07.2019 15:00:00 20,0 14,3 0,0
16.07.2019 14:00:00 21,2 15,0 0,0
16.07.2019 13:00:00 20,9 15,8 0,0
16.07.2019 12:00:00 19,5 15,0 0,0
16.07.2019 11:00:00 19,2 14,8 0,0
16.07.2019 10:00:00 18,8 14,7 0,0
16.07.2019 09:00:00 17,4 13,6 0,0
16.07.2019 08:00:00 16,6 13,5 0,0
16.07.2019 07:00:00 15,7 14,2 0,0
16.07.2019 06:00:00 14,6 13,7 0,0
16.07.2019 05:00:00 10,4 10,2 0,0
16.07.2019 04:00:00 10,1 9,8 0,0
16.07.2019 03:00:00 10,1 9,5 0,0

tt = temperature
td = dewpoint
rr = precipitation

Next stations